Flag for Canada Weather past 2 weeks in Whitby, Ontario, Canada

Now
68 °F

Overcast.


Feels Like: 68 °F
Forecast: 63 / 76 °F
Wind: 3 mph from Northeast

Location: Toronto Buttonville

Current Time: Aug 30, 2015 at 10:46:21 AM

Latest Report: Aug 30, 2015 at 10:00 AM


Visibility: 15 mi

Pressure: 30.10 "Hg

Humidity: 78%

Dew point: 61 °F

Location of WhitbyLocation

Historic Weather in Whitby — Graph

°F

Whitby temperature yesterday

Maximum temperature yesterday: 75 °F (at 3:00 PM)
Minimum temperature yesterday: 55 °F (at 6:00 AM)
Average temperature yesterday: 66 °F

Past Weeks' High & Low Weather Summary

 TemperatureHumidityPressure
High90 °F (Aug 17, 2:00 PM)100% (Aug 29, 6:00 AM)30.23 "Hg (Aug 29, 6:00 AM)
Low50 °F (Aug 28, 5:00 AM)36% (Aug 22, 3:00 PM)29.71 "Hg (Aug 20, 7:00 AM)
Average69 °F73%30.00 "Hg
* Reported Aug 15 9:00 AM — Aug 30 9:00 AM, Whitby, Weather by CustomWeather, © 2015

Note: Actual official high and low records may vary slightly from our data, if they occured in-between our weather recording intervals... More about our weather records

Advertising

Whitby weather history for previous 24 hours

 ConditionsComfort  
Time TempWeatherWind HumidityBarometerVisibility
9:00 AM
Sun, Aug 30
68 °FOvercast.2 mph78%30.09 "Hg12 mi
8:00 AM66 °FOvercast.2 mph83%30.08 "Hg15 mi
7:00 AM64 °FPassing clouds.3 mph88%30.08 "Hg10 mi
6:00 AM64 °FPassing clouds.2 mph88%30.06 "Hg12 mi
5:00 AM66 °FOvercast.No wind88%30.06 "Hg12 mi
4:00 AM64 °FOvercast.2 mph88%30.06 "Hg12 mi
3:00 AM64 °FMostly cloudy.No wind88%30.06 "Hg12 mi
2:00 AM66 °FOvercast.3 mph88%30.07 "Hg12 mi
1:00 AM66 °FOvercast.2 mph88%30.08 "Hg12 mi
12:00 AM66 °FOvercast.2 mph88%30.09 "Hg12 mi
11:00 PM
Sat, Aug 29
66 °FPassing clouds.2 mph83%30.09 "Hg12 mi
10:00 PM68 °FOvercast.2 mph83%30.09 "Hg12 mi
9:00 PM68 °FOvercast.5 mph83%30.09 "Hg12 mi
8:00 PM70 °FOvercast.6 mph73%30.08 "Hg12 mi
7:00 PM72 °FMore clouds than sun.6 mph65%30.09 "Hg15 mi
6:00 PM73 °FOvercast.3 mph57%30.09 "Hg15 mi
5:00 PM75 °FOvercast.2 mph54%30.09 "Hg15 mi
4:00 PM75 °FBroken clouds.6 mph54%30.10 "Hg15 mi
3:00 PM75 °FBroken clouds.5 mph54%30.12 "Hg15 mi
2:00 PM73 °FPartly sunny.No wind65%30.14 "Hg15 mi
1:00 PM72 °FMore clouds than sun.5 mph69%30.15 "Hg15 mi
12:00 PM70 °FMostly cloudy.8 mph69%30.15 "Hg15 mi
11:00 AM68 °FMostly cloudy.3 mph73%30.14 "Hg15 mi
10:00 AM68 °FPartly sunny.3 mph69%30.15 "Hg15 mi
Weather by CustomWeather, © 2015

See weather overviewHow to use our weather pages